Showing default

NOAA 16, 26536

Orbit data source: Space-Track

NOAA 16, 26536 is a payload satellite owned by NOAA (US) in SSO that was launched on Thu, 21 Sep 2000 UTC via a TITAN II SLV launch vehicle from the Air Force Western Test Range (AFWTR). Payload-class satellites include a variety of spacecraft equipped with specific instruments for various scientific and technological missions. These include communications satellites like Starlink; space stations such as the ISS; scientific satellites like the Hubble; Earth observation satellites from companies like Planet Labs, Umbra, and HawkEye 360; GPS; miniature CubeSats for education and research; and military/defense satellites.

Loading next visibility...
Identifier
26536, 2000-055A
Orbit
SSO
Country
Flag of USUS
Related business
Manufacturer
LM/EW
Mission
Non-operational Civil Weather
Bus & Motor
ATN, Unknown motor
Mass
2,231 kg wet, 1,403 kg dry
Launch date (UTC)
2000-09-21 (25 years ago)
Launch vehicle
TITAN II SLV
Launch site
Air Force Western Test Range (AFWTR)
Object type
Payload
Rocket body
Debris
Shape & HBR
Box + 1 Pan, 3.5 m
Radar Cross Section
11.218 m², Large (>1 m²)

Expand to show TLE details & history
Last TLE update: 22 hours ago

TLE from 22 hours ago
0 NOAA 16
1 26536U 00055A   25242.09963872  .00000090  00000-0  69082-4 0  9999
2 26536  98.4858 266.4837 0011428  60.7895 299.4420 14.13826327582599
Epoch: 2025-08-30T02:23Z
TLE epoch observation values (Epoch: 2025-08-30T02:23:28.785Z)
Latitude
-0.00006°
Longitude
-107.92502°
Altitude
845.169 km
Speed
7.432 km/s
True Right ascension
17h 45m 56s
True Declination
0° 00' 00"
Sunlit
Object was in daylight at epoch
Visualization orbit readout
Latitude
Unknown
Longitude
Unknown
Altitude
Unknown
Speed
Unknown
Apparent Right ascension
Unknown
Apparent Declination
Unknown
Sunlit
N/A
Visualization observer readout
Local Sidereal Time
15:45:09
Azimuth
Unknown
Elevation
Unknown
Doppler factor
Unknown
Orbital elements
Apogee altitude
851.717 km
Perigee altitude
835.211 km
Semi-major axis
7,221.601 km
Eccentricity
0.00114
Inclination
98.4858°
RAAN
266.4837°
Arg. of periapsis
60.7895°
True anomaly
299.32788°
Mean anomaly
299.442°
Eccentric anomaly
299.38495°
Mean motion
3.53666 °/min
Orbital period
101.79 mins
BSTAR
0.000069082
Loading maneuver chart data...
Computing Atmospheric mass density...
Loading historical data...
Loading historical data...
Loading historical data...
Loading historical data...
Loading historical data...
Loading historical data...
Loading historical data...

Documentation

Showing up to 5 results
|